Regional Weather Roundup
Issued by NWS New Orleans/Baton Rouge, LA

Home | Current Version | Previous Version | Text Only | Print | Product List | Glossary On
Versions: 1 2 3 4 5 6 7 8 9 10 11 12 13 14 15 16 17 18 19 20 21 22 23 24 25 26 27 28 29 30 31 32 33 34 35 36 37 38 39 40 41 42 43 44 45 46 47 48 49 50
614
ASUS44 KLIX 020410
RWRLIX
NEW ORLEANS REGIONAL WEATHER ROUNDUP
NATIONAL WEATHER SERVICE NEW ORLEANS LA
1100 PM CDT FRI AUG 01 2014

NOTE: "FAIR" INDICATES FEW OR NO CLOUDS BELOW 12,000 FEET WITH NO
      SIGNIFICANT WEATHER AND/OR OBSTRUCTIONS TO VISIBILITY.
      SKY/WX - SKY CONDITION AND SIGNIFICANT WEATHER.
      TMP - AIR TEMPERATURE.     DP    - DEWPOINT TEMPERATURE.
      RH  - RELATIVE HUMIDITY.   PRES  - PRESSURE.
      HI  - HEAT INDEX.          WCI   - WIND CHILL INDEX.

*  THESE STATIONS ARE NOT NWS OR FAA STATIONS AND ARE NOT UNDER
   NWS QUALITY CONTROL.

LAZ038-040-048-061>063-065>067-069-020500-
SOUTHEAST LOUISIANA

CITY           SKY/WX    TMP DP  RH WIND       PRES   REMARKS
N.O. AUDUBON     N/A     82  70  66 MISG        N/A
N.O. INTL ARPT PTCLDY    80  70  71 SE7       29.98R
N.O. LAKEFRONT CLOUDY    81  69  67 SE7       29.99R
N.O. DOWNTOWN* MOCLDY    82  66  57 S7        29.99R
SLIDELL        CLEAR     73  69  87 CALM      29.99R
BATON ROUGE    CLOUDY    76  74  93 E6        29.97R
BOOTHVILLE     CLEAR     79  71  76 SE3       30.00R
BELLE CHASSE   MOCLDY    76  71  85 SE3       29.98R
BOGALUSA*      CLOUDY    77  71  80 CALM      30.01R
GALLIANO*      NOT AVBL
NEW ROADS*     RAIN      77  74  90 NE3       29.97R
GONZALES*        N/A     78  76  93 CALM      29.97R
HAMMOND*       CLEAR     77  68  73 E5        30.00R
HOUMA*         CLOUDY    77  69  77 CALM      29.98R
PORT FOURCHON* CLEAR     82  70  65 SE7       30.00S

$$

MSZ070-080>082-020500-
SOUTHERN MISSISSIPPI

CITY           SKY/WX    TMP DP  RH WIND       PRES   REMARKS
MCCOMB         MOCLDY    73  71  93 CALM      30.00R FOG
GULFPORT       CLEAR     77  70  79 CALM      29.99R
BILOXI         CLEAR     76  69  79 E5        29.99S
PASCAGOULA     PTCLDY    70  69  97 CALM      30.00R

$$

COASTAL OBSERVATIONS
LAKE AND NEARSHORE STATIONS

STATION/POSITION TIME  TEMP    WIND        PRES    WAVE
                       AIR SEA DIR/SP/G            HT/PER
                 (UTC) (F)     (DEG/KT/KT) (MB)    (FT/S)
PASCAGOULA       0300                      1015.1
WAVELAND YACHT   0300   79                   N/A
GRAND ISLE       0300                      1015.9
SOUTHWEST PASS   0300                      1015.8
NEW CANAL        0300   81                   N/A
SHELL BEACH      0300   81                   N/A

OFFSHORE STATIONS

STATION/POSITION TIME  TEMP    WIND        PRES    WAVE
                       AIR SEA DIR/SP/G            HT/PER
                 (UTC) (F)     (DEG/KT/KT) (MB)    (FT/S)
64 S DAUPHIN ISL 0304   83 85  110/  4/  6 1015.9

$$




USA.gov is the U.S. government's official web portal to all federal, state and local government web resources and services.